| time (UTC) | temp F | wind direction | speed knots | gust knots | rain 1hr in | rain 24hr in | rain mn in | humidity % | barometer mb |
| 20260507060012 | 50 | 236 | 0.0 | 0.0 | 0.04 | 0.28 | 0.10 | 96 | 1011.3 |
| 20260507054512 | 50 | 236 | 0.0 | 0.0 | 0.05 | 0.28 | 0.10 | 95 | 1011.0 |
| 20260507053010 | 50 | 245 | 0.0 | 0.0 | 0.04 | 0.27 | 0.09 | 95 | 1011.1 |
| 20260507051508 | 51 | 161 | 0.0 | 2.6 | 0.04 | 0.25 | 0.07 | 94 | 1011.2 |
| 20260507050005 | 52 | 302 | 0.0 | 2.6 | 0.06 | 0.24 | 0.06 | 94 | 1011.3 |
| 20260507044506 | 52 | 181 | 0.0 | 0.0 | 0.08 | 0.23 | 0.05 | 95 | 1011.2 |
| 20260507043105 | 53 | 181 | 0.0 | 0.9 | 0.09 | 0.23 | 0.05 | 94 | 1011.0 |
| 20260507041600 | 53 | 260 | 0.0 | 0.9 | 0.07 | 0.21 | 0.03 | 93 | 1010.7 |
| 20260507040053 | 54 | 109 | 0.0 | 0.9 | 0.04 | 0.18 | 0.00 | 90 | 1010.7 |
| 20260507034555 | 56 | 357 | 0.0 | 2.6 | 0.01 | 0.15 | 0.15 | 87 | 1010.2 |
| 20260507033048 | 56 | 134 | 0.0 | 1.7 | 0.00 | 0.14 | 0.14 | 85 | 1010.5 |
| 20260507031547 | 57 | 221 | 0.0 | 0.9 | 0.00 | 0.14 | 0.14 | 86 | 1010.3 |
| 20260507030048 | 57 | 84 | 0.0 | 0.9 | 0.00 | 0.14 | 0.14 | 85 | 1010.1 |
| 20260507024549 | 57 | 300 | 0.0 | 1.7 | 0.00 | 0.14 | 0.14 | 85 | 1010.3 |
| 20260507023041 | 58 | 246 | 0.0 | 1.7 | 0.00 | 0.14 | 0.14 | 85 | 1010.0 |
| 20260507021539 | 58 | 218 | 0.0 | 1.7 | 0.00 | 0.14 | 0.14 | 85 | 1010.2 |
| 20260507020046 | 58 | 86 | 0.0 | 3.5 | 0.00 | 0.14 | 0.14 | 87 | 1010.1 |
| 20260507014536 | 59 | 335 | 0.0 | 1.7 | 0.00 | 0.14 | 0.14 | 88 | 1009.9 |
| 20260507013035 | 59 | 271 | 0.0 | 1.7 | 0.00 | 0.14 | 0.14 | 88 | 1010.0 |
| 20260507011533 | 60 | 191 | 0.0 | 1.7 | 0.00 | 0.14 | 0.14 | 88 | 1010.1 |
| 20260507010034 | 60 | 214 | 0.0 | 0.9 | 0.00 | 0.14 | 0.14 | 89 | 1009.9 |
| 20260507004532 | 61 | 185 | 0.0 | 0.0 | 0.00 | 0.14 | 0.14 | 89 | 1009.7 |
| 20260507003029 | 62 | 122 | 0.0 | 1.7 | 0.00 | 0.14 | 0.14 | 90 | 1009.4 |
| 20260507001535 | 63 | 247 | 0.0 | 0.9 | 0.00 | 0.14 | 0.14 | 93 | 1009.1 |
| 20260507000025 | 63 | 213 | 0.0 | 0.9 | 0.00 | 0.14 | 0.14 | 93 | 1008.6 |
| 20260506234524 | 64 | 219 | 0.0 | 0.9 | 0.00 | 0.14 | 0.14 | 93 | 1008.3 |
| 20260506233024 | 64 | 229 | 0.0 | 0.0 | 0.00 | 0.14 | 0.14 | 92 | 1007.9 |
| 20260506231527 | 64 | 212 | 0.0 | 1.7 | 0.00 | 0.14 | 0.14 | 91 | 1008.0 |
| 20260506230022 | 65 | 209 | 0.0 | 1.7 | 0.00 | 0.14 | 0.14 | 90 | 1008.0 |
| 20260506224523 | 65 | 210 | 0.0 | 2.6 | 0.00 | 0.14 | 0.14 | 89 | 1007.9 |
| 20260506223021 | 66 | 233 | 0.0 | 3.5 | 0.00 | 0.14 | 0.14 | 88 | 1007.9 |
| 20260506221520 | 66 | 211 | 0.0 | 2.6 | 0.00 | 0.14 | 0.14 | 88 | 1007.7 |
| 20260506220020 | 66 | 195 | 0.0 | 3.5 | 0.00 | 0.14 | 0.14 | 88 | 1007.6 |
| 20260506214519 | 66 | 252 | 0.0 | 2.6 | 0.00 | 0.14 | 0.14 | 88 | 1007.3 |
| 20260506213019 | 66 | 220 | 0.0 | 2.6 | 0.00 | 0.14 | 0.14 | 87 | 1007.1 |
| 20260506211518 | 66 | 217 | 0.0 | 3.5 | 0.00 | 0.14 | 0.14 | 87 | 1007.2 |
| 20260506210022 | 67 | 194 | 0.0 | 1.7 | 0.00 | 0.14 | 0.14 | 87 | 1006.9 |
| 20260506204517 | 66 | 257 | 0.0 | 2.6 | 0.00 | 0.14 | 0.14 | 89 | 1006.9 |
| 20260506203015 | 65 | 203 | 0.0 | 1.7 | 0.00 | 0.14 | 0.14 | 91 | 1006.8 |
| 20260506201515 | 64 | 219 | 0.0 | 0.9 | 0.00 | 0.14 | 0.14 | 92 | 1007.1 |
| 20260506200014 | 64 | 193 | 0.0 | 0.0 | 0.00 | 0.14 | 0.14 | 92 | 1006.9 |
| 20260506194513 | 64 | 214 | 0.0 | 1.7 | 0.00 | 0.14 | 0.14 | 91 | 1007.0 |
| 20260506193012 | 64 | 214 | 0.0 | 3.5 | 0.00 | 0.14 | 0.14 | 91 | 1007.1 |
| 20260506191512 | 64 | 204 | 0.0 | 2.6 | 0.00 | 0.14 | 0.14 | 90 | 1007.2 |
| 20260506190011 | 64 | 203 | 0.0 | 0.9 | 0.00 | 0.14 | 0.14 | 92 | 1007.1 |
| 20260506184511 | 63 | 219 | 0.0 | 1.7 | 0.00 | 0.14 | 0.14 | 92 | 1007.3 |
| 20260506183012 | 63 | 228 | 0.0 | 2.6 | 0.00 | 0.14 | 0.14 | 92 | 1007.4 |
| 20260506181509 | 63 | 217 | 0.0 | 2.6 | 0.00 | 0.14 | 0.14 | 93 | 1007.5 |
| 20260506180012 | 63 | 219 | 0.0 | 6.1 | 0.00 | 0.14 | 0.14 | 94 | 1007.6 |
| 20260506174507 | 61 | 239 | 0.0 | 1.7 | 0.00 | 0.14 | 0.14 | 95 | 1007.7 |
| 20260506173006 | 61 | 189 | 0.0 | 1.7 | 0.00 | 0.14 | 0.14 | 95 | 1007.6 |
| 20260506171512 | 60 | 230 | 0.0 | 3.5 | 0.00 | 0.14 | 0.14 | 95 | 1007.7 |
| 20260506170005 | 60 | 198 | 0.0 | 2.6 | 0.00 | 0.14 | 0.14 | 95 | 1007.7 |
| 20260506164505 | 60 | 197 | 0.9 | 4.3 | 0.00 | 0.14 | 0.14 | 95 | 1007.6 |
| 20260506163008 | 60 | 214 | 0.0 | 3.5 | 0.00 | 0.14 | 0.14 | 96 | 1007.4 |
| 20260506161505 | 60 | 230 | 0.0 | 4.3 | 0.01 | 0.14 | 0.14 | 96 | 1007.8 |
| 20260506160006 | 60 | 169 | 0.9 | 3.5 | 0.02 | 0.14 | 0.14 | 96 | 1007.6 |
| 20260506154503 | 60 | 221 | 0.0 | 4.3 | 0.05 | 0.14 | 0.14 | 96 | 1007.7 |
| 20260506153001 | 60 | 140 | 0.0 | 3.5 | 0.06 | 0.14 | 0.14 | 97 | 1007.5 |
| 20260506151600 | 60 | 188 | 0.0 | 2.6 | 0.06 | 0.13 | 0.13 | 96 | 1007.4 |
| 20260506150101 | 60 | 243 | 0.0 | 4.3 | 0.05 | 0.12 | 0.12 | 96 | 1008.3 |
| 20260506144604 | 60 | 238 | 0.0 | 2.6 | 0.03 | 0.09 | 0.09 | 96 | 1008.4 |
| 20260506143059 | 60 | 241 | 0.0 | 3.5 | 0.03 | 0.08 | 0.08 | 95 | 1008.4 |
| 20260506141604 | 60 | 167 | 0.0 | 3.5 | 0.04 | 0.07 | 0.07 | 95 | 1008.1 |
| 20260506140114 | 60 | 274 | 0.0 | 1.7 | 0.05 | 0.07 | 0.07 | 96 | 1008.0 |
| 20260506134558 | 60 | 191 | 0.0 | 7.8 | 0.05 | 0.06 | 0.06 | 95 | 1007.9 |
| 20260506133102 | 60 | 217 | 0.0 | 1.7 | 0.05 | 0.05 | 0.05 | 93 | 1008.1 |
| 20260506131552 | 61 | 198 | 0.0 | 2.6 | 0.03 | 0.03 | 0.03 | 92 | 1008.1 |
| 20260506130051 | 61 | 213 | 0.0 | 0.9 | 0.02 | 0.02 | 0.02 | 91 | 1008.1 |
| 20260506124548 | 61 | 201 | 0.0 | 1.7 | 0.01 | 0.01 | 0.01 | 90 | 1008.2 |
| 20260506123047 | 62 | 225 | 0.0 | 2.6 | 0.00 | 0.00 | 0.00 | 87 | 1008.4 |
| 20260506121545 | 62 | 243 | 0.0 | 1.7 | 0.00 | 0.00 | 0.00 | 85 | 1008.6 |
| 20260506120047 | 62 | 240 | 0.0 | 2.6 | 0.00 | 0.00 | 0.00 | 83 | 1008.6 |
| 20260506114540 | 63 | 272 | 0.0 | 2.6 | 0.00 | 0.00 | 0.00 | 82 | 1008.3 |
| 20260506113046 | 63 | 129 | 0.0 | 1.7 | 0.00 | 0.00 | 0.00 | 80 | 1008.0 |
| 20260506111535 | 64 | 154 | 0.9 | 4.3 | 0.00 | 0.00 | 0.00 | 76 | 1007.9 |
| 20260506110036 | 64 | 85 | 0.9 | 6.1 | 0.00 | 0.00 | 0.00 | 75 | 1007.8 |
| 20260506104535 | 65 | 188 | 0.0 | 4.3 | 0.00 | 0.00 | 0.00 | 74 | 1007.5 |
| 20260506103035 | 65 | 281 | 0.0 | 2.6 | 0.00 | 0.00 | 0.00 | 72 | 1007.3 |
| 20260506101538 | 65 | 193 | 0.0 | 3.5 | 0.00 | 0.00 | 0.00 | 71 | 1007.4 |
| 20260506100032 | 66 | 207 | 0.0 | 7.0 | 0.00 | 0.00 | 0.00 | 70 | 1007.3 |
| 20260506094528 | 66 | 200 | 0.0 | 2.6 | 0.00 | 0.00 | 0.00 | 70 | 1007.1 |
| 20260506093023 | 66 | 206 | 0.0 | 3.5 | 0.00 | 0.00 | 0.00 | 69 | 1007.1 |
| 20260506091522 | 66 | 252 | 0.0 | 3.5 | 0.00 | 0.00 | 0.00 | 68 | 1007.3 |
| 20260506090020 | 66 | 94 | 0.0 | 5.2 | 0.00 | 0.00 | 0.00 | 67 | 1007.5 |
| 20260506084523 | 66 | 122 | 0.0 | 3.5 | 0.00 | 0.00 | 0.00 | 67 | 1007.6 |
| 20260506083018 | 66 | 146 | 0.0 | 7.0 | 0.00 | 0.00 | 0.00 | 67 | 1007.5 |
| 20260506081517 | 67 | 233 | 0.0 | 5.2 | 0.00 | 0.00 | 0.00 | 66 | 1007.6 |
| 20260506073009 | 68 | 214 | 0.0 | 2.6 | 0.00 | 0.00 | 0.00 | 63 | 1007.7 |
| 20260506071507 | 68 | 207 | 0.0 | 4.3 | 0.00 | 0.00 | 0.00 | 62 | 1007.9 |
| 20260506061606 | 69 | 110 | 0.0 | 5.2 | 0.00 | 0.00 | 0.00 | 59 | 1008.4 |